Tracking 35331 objects as of 16-Sep-2026
HD Live streaming from Space Station
objects crossing your sky now

GLOBALSTAR M104

Track GLOBALSTAR M104 now!
10-day predictions
GLOBALSTAR M104 is classified as:


NORAD ID: 100328
Int'l Code: 2026-185D
Launch date: August 16, 2026
Source: United States (US)
Launch site: AIR FORCE EASTERN TEST RANGE (AFETR)
Your satellite tracking list
Your tracking list is empty




NASA's NSSDC Master Catalog

Two Line Element Set (TLE):
1 A0328U 26185D   26254.44312422  .00000019  00000-0  50472-4 0  9998
2 A0328  51.9883 124.9635 0009153 327.5937  32.4450 14.48491082  3858
Source of the keplerian elements: AFSPC